CZ-6A DEB

Satellite information

Favourite Embed

Satellite Type and Status

DEBRISIN ORBIT

Key statistics

Satellite CZ-6A DEB at a glance.

Uptime

1031

Days in orbit

Revolutions

≈ 14.2

Per day

Orbit

SSO

Sun Synchronous Orbit

Inclination

98.8

Latest

Satellite identification and parameters

Extended collection of information and parameters for CZ-6A DEB.

Object identification

Identified? True

Debris? True

Object name: CZ-6A DEB

International designator: 2022-151AAU

Object number (NORAD): 55896

Object ID (CCSDS): 55896

Country: PEOPLES REPUBLIC OF CHINA (PRC)

Current information (Y/N): Y

RCS size: SMALL

Orbital parameters

Period: 101.278 minutes

Inclination: 98.8129 deg

SMA: 7197.327 km

Apoapsis: 846.553 km

Periapsis: 791.832 km

RAAN: 257.8851 deg

Eccentricy: 0.00380145

Argument of periapsis: 24.3622 deg

Mean anomaly: 335.9342 deg

Mean motion: 14.21824092 rev/day

Mean motion (dot): 0.00005931 rev/day2

B* drag term: 0.0026917028 1/REarth

Two-line elements (TLE)

Creation date: Sept. 7, 2025, 3:09 a.m.

Reference frame: TEME

Reference center: EARTH

Epoch: Sept. 6, 2025, 11:03 a.m. UTC

TLE line 0: 0 CZ-6A DEB

TLE line 1: 1 55896U 22151AAU 25249.46078762 .00005931 00000-0 26917-2 0 9991

TLE line 2: 2 55896 98.8129 257.8851 0038015 24.3622 335.9342 14.21824092140090

Live tracking on map

Real-time ground track for satellite CZ-6A DEB.

In-orbit conjunctions

A list of the most updated potential collisions computed for object CZ-6A DEB.

Target Orbit TCA Probability of collision Miss distance Type
CZ-6A DEB LEO 2024-12-24 03:10:56 0.0001938743 978.0 (m) DEBRIS
FENGYUN 1C DEB SSO 2024-09-26 01:44:43 0.0002443217 199.0 (m) DEBRIS

Associated space launch

Chinese satellite reported for atmospheric/ocean/environmental/spatial parameter research purposes, details TBD.

CZ-6A DEB was lifted into orbit during the mission ‘Long March 6A | Yunhai 3’, on board a Long March 6A space rocket.

The launch took place on Nov. 11, 2022, 10:52 p.m. from Launch Complex 9A.

For more information about the launch, click the button.

Launch to space Long March 6A | Yunhai 3
Long March 6A | Yunhai 3

Agency: N/A

Status: Launch Successful

Launch date: Nov. 11, 2022, 10:52 p.m. UTC

Rocket: Long March 6A

Launch pad: Launch Complex 9A

Location: Taiyuan Satellite Launch Center, People's Republic of China

...

Latest news about this satellite

There are no fresh news available about this satellite. Check back as we update our databases every day.


Newsletter sign-up

Weekly statistics, charts and insights to help you stay on top of the space industry.